Location: Newark
(47.3150°N, 5.1150°E)
Time: 20:13:59
(UTC+00:00)

AO-7 - Pass Details

Date: 22 December 2019
Orbit: 1440 x 1458 km, 101.8° (Epoch: 28 January)

Event Time Altitude Azimuth Distance (km) Brightness Sun altitude
Rises 03:08:18 0° 20° (NNE) 4,567 ? -42.1°
Reaches altitude 10° 03:11:11 10° 25° (NNE) 3,587 ? -41.6°
Maximum altitude 03:19:25 58° 103° (ESE) 1,663 ? -40.2°
Enters shadow 03:20:53 52° 140° (SE) 1,755 ? -40.0°
